Вернуться в каталог

STARLINK-33746

АктивенСвязьVLEO
NORAD 63446·PAYLOAD·🇺🇸 United States

Запущен Apr 4, 2025 с Vandenberg Space Force Base

Loading…

Ближайшие Пролёты (ближайшие 24 часа)

TLE

СвежийSource: CelesTrak SupGP

Эпоха: Sep 14, 2026, 20:53 UTC

1 63446C 25069P   26257.87062500 -.00013416  00000+0 -39644-3 0  2577
2 63446  53.1585 336.0754 0001185  83.8489  41.9025 15.34393514    15

Отслеживайте STARLINK-33746 в реальном времени с AllMySat

Download on the App Store